Location: Auckland
(36.8670°S, 174.7670°E)
Time: 00:49:27
(UTC+12:00)

Tiros 1 despin weight - Pass Details

Date: 21 July 2019
Orbit: 594 x 642 km, 48.2° (Epoch: 20 August)

Event Time Altitude Azimuth Distance (km) Brightness Sun altitude
Rises 00:15:00 0° 304° (NW) 2,830 - -73.6°
Reaches altitude 10° 00:17:17 10° 304° (WNW) 1,933 - -73.6°
Maximum altitude 00:21:43 84° 214° (SW) 610 - -73.7°
Drops below altitude 10° 00:26:13 10° 126° (SE) 1,957 - -73.8°
Sets 00:28:32 0° 125° (SE) 2,869 - -73.8°
